Location: *
(45.9500°N, 9.0833°E)
Time: 21:58:01
(UTC+00:00)

Daily predictions for brighter satellites

Satellite Brightness Start Highest point End
(mag) Time Altitude Azimuth Time Altitude Azimuth Time Altitude Azimuth
Meteor 1-25 Rocket 4.4 17:32:07 10° S 17:37:43 56° E 17:43:18 10° NNE
Cosmos 2074 Rocket 4.0 17:35:38 10° S 17:41:50 67° E 17:48:02 10° NNE
Meteor 1-27 Rocket 4.4 17:36:36 10° NNW 17:42:02 60° W 17:47:29 10° S
Cosmos 2154 Rocket 4.3 17:36:20 10° SSE 17:42:09 44° E 17:47:58 10° NNE
Abrixas rocket 1.7 17:40:45 10° W 17:43:14 63° NNW 17:45:42 10° ENE
YAOGAN 1 2.8 17:39:20 10° SE 17:43:30 50° ENE 17:47:42 10° N
Helios 1A Rocket 3.7 17:40:15 10° SE 17:43:47 29° ENE 17:47:18 10° N
APEX 2.8 17:43:51 10° NNW 17:46:39 66° WSW 17:49:19 10° SSE
Cosmos 2219 Rocket 3.9 17:47:07 10° ESE 17:48:30 11° E 17:49:55 10° E
COSMO-SKYMED 1 2.9 17:45:49 10° N 17:50:10 75° WNW 17:54:29 10° SSW
GP-B 4.2 17:47:23 10° SE 17:50:56 24° ENE 17:54:28 10° NNE
Cosmos 1992 Rocket 4.2 17:49:24 10° S 17:54:23 47° ESE 17:59:24 10° NNE
SL-16 R/B 2.2 17:49:17 10° SSW 17:54:55 75° ESE 18:00:37 10° NNE
Cosmos 2263 Rocket 3.1 17:49:55 10° NW 17:55:20 53° WSW 18:00:43 10° S
Cosmos 1437 4.3 17:52:42 10° NNW 17:55:23 36° W 17:58:04 10° SSW
Meteor 1-18 Rocket 4.4 17:50:14 10° N 17:56:08 58° ENE 18:01:56 10° SSE
Cosmos 968 Rocket 3.5 17:50:59 10° NNW 17:56:17 84° ENE 18:01:34 10° SSE
ARGOS 3.3 17:51:20 10° SE 17:56:36 55° ENE 18:01:54 10° N
USA 234 4.0 17:54:00 10° ENE 17:59:46 32° SE 18:05:29 10° S
Cosmos 1486 Rocket 4.0 17:54:43 10° NNW 18:00:02 80° ENE 18:05:21 10° SSE
Cosmos 1515 3.6 17:56:36 10° N 18:00:25 63° E 18:04:12 10° SSE
Okean 1 3.3 17:56:30 10° N 18:00:31 62° E 18:04:31 10° SSE
Cosmos 1633 Rocket 3.1 17:57:55 10° S 18:02:19 87° ESE 18:06:48 10° N
Cosmos 2184 Rocket 4.0 17:56:15 10° S 18:02:25 90° W 18:08:40 10° N
SeaSat 1 2.9 17:58:22 10° NE 18:03:01 39° ESE 18:07:37 10° S
OBJECT-B 3.0 18:03:22 10° ENE 18:03:22 10° ENE 18:03:48 10° NE
Okean 1-7 4.0 18:00:15 10° NNE 18:03:56 26° ENE 18:07:34 10° SE
Cosmos 1707 Rocket 4.3 17:59:41 10° NNW 18:04:00 58° W 18:08:15 10° S
CZ-4 R/B 1.5 18:04:05 10° S 18:07:55 77° WSW 18:11:51 10° NNW
H-2A R/B 2.2 18:02:29 10° SSE 18:07:55 87° WSW 18:13:25 10° NNW
CZ-2C R/B 3.0 18:03:06 10° NNE 18:08:20 44° E 18:13:25 10° S
SAR-Lupe-4 3.6 18:07:23 10° NNE 18:10:54 55° E 18:14:25 10° S
USA 305 4.4 18:07:19 10° WNW 18:11:05 29° N 18:14:50 10° NE
Gbstr 26 Del rocket 4.0 18:09:34 10° W 18:13:49 45° N 18:18:27 12° ENE
Cosmos 2237 4.3 18:08:39 10° S 18:14:15 58° ESE 18:19:53 10° NNE
Meteor 1-20 Rocket 4.5 18:09:16 10° SSW 18:14:42 71° WNW 18:20:12 10° N
SL-4 R/B 2.6 18:13:15 10° WNW 18:16:33 34° N 18:18:38 18° ENE
USA 307 4.4 18:18:41 10° WNW 18:22:26 28° N 18:25:41 12° NE
USA 186 3.2 18:25:07 15° NNE 18:25:07 15° NNE 18:25:51 10° NNE
ATLAS CENTAUR R/B 1.1 18:20:27 10° SSW 18:23:59 52° ESE 18:26:56 14° NE
FALCON 9 DEB 3.3 18:21:07 10° NW 18:24:30 57° NNE 18:26:13 26° E
USA 306 4.4 18:22:10 10° WNW 18:25:53 28° N 18:28:56 13° NE
Cosmos 1354 Rocket 3.9 18:21:30 10° NNW 18:26:45 68° ENE 18:31:57 10° SSE
Okean-O 3.2 18:23:23 10° S 18:27:46 60° WSW 18:32:10 10° NNW
Cosmos 44 Rocket 3.9 18:22:59 10° NW 18:28:11 63° WSW 18:33:17 10° SSE
ERS-2 2.1 18:24:32 10° NNE 18:28:12 83° WNW 18:31:51 10° SSW
CSL-04 Rocket 3.7 18:23:31 10° SSE 18:29:04 81° ENE 18:34:37 10° NNW
SAR-Lupe-1 4.1 18:26:44 10° NNE 18:30:20 82° WNW 18:33:54 10° SSW
CSL-04 Debris 4.2 18:24:58 10° SSE 18:30:25 88° ENE 18:35:56 10° NNW
Cosmos 1844 Rocket 2.6 18:24:55 10° NNW 18:30:30 67° ENE 18:36:02 10° SE
Cosmos 2084 Rocket 3.6 18:26:18 10° NW 18:30:38 76° SW 18:34:59 11° SSE
USA 308 4.4 18:29:23 10° WNW 18:33:07 28° N 18:35:51 15° NE
Cosmos 1666 3.1 18:30:07 10° SSE 18:33:33 37° E 18:37:01 10° NNE
HJ-1C 4.0 18:32:27 10° S 18:35:43 58° W 18:39:00 10° NNW
Cosmos 1503 Rocket 4.0 18:31:45 10° NNW 18:36:59 86° WSW 18:42:08 10° SSE
Cosmos 2341 Rocket 4.0 18:31:16 10° S 18:37:27 62° E 18:43:38 10° NNE
Meteor 1-5 Rocket 4.1 18:32:35 10° S 18:37:49 57° E 18:43:12 10° NNE
Cosmos 1470 Rocket 4.0 18:37:09 10° SSW 18:41:34 64° W 18:46:01 10° N
Cosmos 1844 3.7 18:36:32 10° NNW 18:42:19 70° ENE 18:46:57 16° SE
Okean 3 4.2 18:38:44 10° N 18:42:34 31° ENE 18:42:57 31° E
CZ-4B R/B 4.5 18:41:16 10° NNW 18:43:05 15° WNW 18:44:54 10° WSW
Cosmos 2360 Rocket 2.1 18:38:39 10° SSW 18:44:17 83° ESE 18:50:00 10° NNE
Ariane Rocket 3.5 18:42:04 24° ESE 18:44:32 40° ENE 18:49:17 10° N
Cosmos 2278 Rocket 3.5 18:43:10 10° N 18:47:34 22° NE 18:48:35 21° ENE
Cosmos 1727 Rocket 4.5 18:45:04 10° N 18:50:45 37° ENE 18:52:57 28° ESE
Cosmos 1500 3.8 18:48:37 10° SSW 18:52:17 57° W 18:55:59 10° N
Meteor 2-4 Rocket 3.9 18:48:24 10° NNW 18:54:15 79° W 19:00:10 10° S
Cosmos 2333 Rocket 2.4 18:49:06 10° S 18:54:28 45° ESE 18:59:52 10° NE
Cosmos 1703 Rocket 3.4 18:50:02 10° N 18:54:28 88° E 18:58:50 10° S
Cosmos 2218 Rocket 4.1 18:49:50 10° SSE 18:56:03 56° E 19:02:18 10° NNE
SL-08 RB Rocket 4.2 18:51:54 10° S 18:56:21 59° W 19:00:53 10° NNW
Cosmos 1689 Rocket 4.4 18:54:11 10° NNW 18:56:37 25° WNW 18:59:03 10° SW
Cosmos 1933 Rocket 4.2 18:58:13 10° SSW 19:02:30 57° WNW 19:06:50 10° N
Resurs 01 Rocket 3.0 19:12:41 24° NNE 19:12:41 24° NNE 19:15:04 10° N
Cosmos 2242 Rocket 4.3 19:08:04 10° NNW 19:12:28 53° W 19:16:48 10° S
Cosmos 864 Rocket 4.3 19:06:44 10° S 19:12:49 69° E 19:19:00 10° NNE
Cosmos 2322 Rocket 3.6 19:09:23 10° WSW 19:14:33 37° NW 19:19:46 10° NNE
Lacrosse 4 Rocket 2.6 19:12:05 10° SSW 19:14:29 30° S 19:14:29 30° S
Abrixas rocket 4.2 19:15:04 10° WNW 19:16:07 21° WNW 19:16:07 21° WNW
Cosmos 1959 Rocket 4.3 19:12:09 10° S 19:18:14 79° E 19:24:22 10° N
SME Rocket 4.0 19:10:20 10° NNE 19:18:35 77° ESE 19:23:51 10° S
Cosmos 192 4.2 19:16:46 10° SSW 19:21:39 83° ESE 19:26:36 10° NNE
SJ-6B 3.1 19:22:30 46° SSW 19:23:36 69° WSW 19:27:40 10° NNW
COSMOS 2428 2.7 19:18:56 10° S 19:24:28 57° ESE 19:24:51 56° E
ASTEX 1 3.2 19:22:49 10° N 19:27:45 87° E 19:30:11 30° S
MOS 1 4.2 19:25:33 32° SSE 19:28:23 89° WSW 19:34:06 10° NNW
Meteor 1-23 Rocket 4.1 19:24:32 10° N 19:30:06 64° ENE 19:30:27 62° E
Cosmos 2219 Rocket 2.0 19:25:51 10° SSW 19:31:26 76° ESE 19:37:03 10° NNE
Meteor 1-11 Rocket 3.6 19:25:46 10° S 19:31:31 89° WNW 19:37:10 10° N
OBJECT-B 2.8 19:36:26 27° NW 19:36:26 27° NW 19:38:08 10° NNW
Resurs 1-3 3.9 19:38:47 62° NNW 19:38:47 62° NNW 19:42:29 10° NNW
SL-16 R/B 4.5 19:35:18 10° W 19:39:39 22° NW 19:44:02 10° N
SeaSat 1 4.0 19:36:00 10° NNE 19:40:27 34° NW 19:44:53 10° WSW
SJ 16-02 2.6 19:36:59 10° NNW 19:39:34 32° N 19:39:34 32° N
USA 234 3.2 19:39:54 32° NE 19:43:11 83° NNW 19:49:45 10° WSW
Cosmos 1066 Rocket 4.3 19:38:15 10° NNW 19:43:59 79° W 19:45:41 48° S
Meteor 2-20 Rocket 4.4 19:43:34 10° N 19:49:08 63° NE 19:49:08 63° NE
Cosmos 2322 4.1 19:45:51 10° SW 19:51:32 63° WNW 19:57:14 10° NNE
BREEZE-M DEB (TANK) 3.3 19:48:55 10° WNW 19:51:09 52° NW 19:51:09 52° NW
SL-4 R/B 4.1 19:52:53 10° WNW 19:54:13 21° WNW 19:54:13 21° WNW
Gbstr 26 Del rocket 4.1 19:56:40 10° WNW 20:00:59 50° N 20:00:59 50° N
ATLAS CENTAUR R/B 3.6 20:00:29 10° W 20:03:07 19° NW 20:03:10 19° NW
SPOT 3 Rocket 4.3 20:18:37 49° NW 20:18:37 49° NW 20:22:37 10° NNW
NOSS 3-3 (A) 4.4 20:10:58 10° NW 20:18:29 80° NE 20:18:42 79° ENE
NOSS 3-3 (C) 4.4 20:11:04 10° NW 20:18:35 80° NE 20:18:47 79° ENE
Cosmos 2278 Rocket 3.1 20:26:35 10° NNW 20:30:28 45° NW 20:30:28 45° NW
Cosmos 2333 Rocket 3.7 20:33:45 10° WSW 20:38:51 33° NW 20:44:02 10° NNE
Resurs 01 Rocket 4.3 20:50:14 17° NW 20:50:14 17° NW 20:51:32 10° NW
Cosmos 1943 Rocket 4.3 20:46:32 10° NNW 20:48:24 19° N 20:48:24 19° N
Cosmos 2219 Rocket 4.3 21:11:47 10° W 21:16:01 22° NW 21:20:18 10° N
USA 234 4.5 21:27:15 36° NW 21:27:15 36° NW 21:31:46 10° W
